Погода Чёрный Яр

Погода Чёрный Яр : погода сейчас, прогноз погоды и архив. Всё, что Вы хотите узнать о погоде Чёрный Яр!

Поиск расширенной информации на нашем сайте:

Другие новости

Новости СМИ2

Главная страница сайта

Новости сайта

02.10.2013

Напоминаем, что на нашем новом сайте вы можете получить высокодетализированные прогнозы погоды по пунктам России, СНГ и мира (включающие важные для авиации метеовеличины, такие как направление и скорость ветра, видимость, явления погоды, количество и форма облачности, нижняя и верхняя граница облачности), а также ознакомиться с разнообразными материалами по авиационной метеорологии и подборкой полезных ссылок на эту тему.

Сайт Метеоцентр.Азия посвящён разработке технологий оптимизации авиаметеорологического обслуживания, включая проектирование и перспективное создание нескольких автоматизированных авиаметеорологических систем:
- система выпуска высокодетальных прогностических карт явлений погоды для нижнего воздушного пространства по России и ближнему зарубежью;
- система верификации прогнозов TAF (выпускаемых синоптиками официальных АМСГ РФ и ближнего зарубежья) и AUTOTAF (выпускаемых сайтом Метеоцентр.Азия) - выявление ошибок, онлайн-сопоставление с фактической погодой METAR, автоматическое внесение коррективов в прогнозы при резком отклонении фактической погоды от прогноза, подсчёт оправдываемости прогнозов по элементам и в целом;
- система обработки, анализа и отображения авиаметеорологической информации для применения провайдерами метеорологической информации.

Рекомендуем: Изготовление деревянных крестов здесь.

Погода Чёрный Яр - сегодня

Время (UTC), дата Ветер
(°,м/с) 
Видим.   Явления Облачность Т
(°С)
Тd
(°С)
f(%) Тe
(°С)
Pmin
(гПа)
dP
(гПа)
Po
(мм)
O2
(г/м3)
Тmin Tmax R s Состояние
почвы
03 25.06.17 290 (З) 10 км    10/0 средняя 
[Ac cuf]
+14.5 +11.7 83 +19  1011.4  1.6  758  288  +12.6        влажная 
06 25.06.17 030 (СВ) 10 км    10/0 средняя, верхняя 
[Ac cast|Ci fib]
+18.1 +9 55 +19  1012.5  1.2  759  285           
09 25.06.17 060 (СВ) 10 км    8/1 1000 м средняя, верхняя 
[Cu med, cong|Ac trans|Ci]
+21.4 +7.6 41 +21  1013.2  0.6  759  283           
12 25.06.17 340 (С) 10 км    4/3 1000 м верхняя 
[Cu med, cong|Ci fib]
+24.1 +6.2 32 +24  1012.8  -0.3  759  280           
15 25.06.17 340 (С) 10 км    9/1 1000 м средняя, верхняя 
[Cu med, cong|Ac cuf|Ci fib]
+23.8 +9.1 39 +24  1013.5  0.7  760  280    +24.8       
18 25.06.17 180 (Ю) 10 км    8/0 средняя, верхняя 
[Ac cast|Ci fib]
+19.3 +11.8 62 +23  1014.9  1.3  761  284           
21 25.06.17 220 (ЮЗ) 10 км    4/0 средняя 
[Ac cast]
+16.6 +9.6 63 +17  1015.9  761  288           
00 26.06.17 210 (ЮЗ) 10 км    10/0 средняя 
[Ac cast]
+15.3 +11.5 78 +19  1016.1  0.3  762  288           
03 26.06.17 220 (ЮЗ) 10 км    3/0 средняя 
[Ac und]
+18.1 +12 68 +23  1016.4  0.2  762  286  +14.2        сухая 
06 26.06.17 260 (З) 10 км    10/10 600 м 
[Sc]
+21 +10.2 50 +22  1017.3  0.9  762  283           
09 26.06.17 150 (ЮВ) 10 км    10/0 средняя 
[Ac cast]
+27.7 +11.5 37 +31  1016.1  -1.2  762  277           
12 26.06.17 190 (Ю) 4{10}  10 км    10/0 средняя 
[Ac cast]
+29.8 +10.8 31 +32  1015  -1  761  275           
15 26.06.17 220 (ЮЗ) 10 км    10/0 средняя 
[Ac cast]
+28.9 +10.9 33 +31  1014.6  -0.4  761  275    +29.9       
18 26.06.17 180 (Ю) 10 км    8/3 1000 м средняя 
[Sc|Ac cast]
+25.1 +12.6 46 +30  1014.6  761  278           
21 26.06.17 160 (Ю) 10 км    4/0 средняя 
[Ac cast]
+22.3 +8.4 41 +22  1015.2  0.5  761  282           
00 27.06.17 200 (Ю) 4{10}  10 км    3/0 средняя 
[Ac trans]
+19.7 +8.1 47 +20  1015.8  0.7  761  285           
03 27.06.17 190 (Ю) 10 км    1/0 средняя 
[Ac trans]
+19.4 +9.5 53 +20  1016.3  0.5  762  285  +17.6        сухая 
06 27.06.17 190 (Ю) 10 км    ясно 
+27.4 +7 27 +27  1016  -0.2  762  278           
09 27.06.17 120 (ЮВ) 10 км    ясно 
+31.4 +8 23 +31  1014.9  -1.2  761  274           
12 27.06.17 100 (В) 10 км    ясно 
+31.1 +9.1 26 +31  1013.4  -1.5  760  273           
15 27.06.17 100 (В) 10 км    8/0 верхняя 
[Ci fib]
+28.9 +10 31 +30  1012.5  -0.9  759  275    +31.7       
18 27.06.17 130 (ЮВ) 10 км    4/0 верхняя 
[Ci fib]
+24 +13.8 53 +30  1012.9  0.4  759  278           
21 27.06.17 130 (ЮВ) 10 км    8/0 средняя 
[Ac trans]
+21.5 +13.5 60 +27  1012.9  -0.1  759  281           
00 28.06.17 140 (ЮВ) 10 км    3/0 верхняя 
[Ci fib]
+19.2 +14.1 72 +27  1012.3  -0.5  759  283           
03 28.06.17 110 (В) 10 км    3/0 верхняя 
[Ci fib]
+20.8 +15.6 72 +30  1013  0.7  759  281  +18.3        сухая 
Время (UTC), дата Ветер
(°,м/с) 
Видим.   Явления Облачность Т
(°С)
Тd
(°С)
f(%) Тe
(°С)
Pmin
(гПа)
dP
(гПа)
Po
(мм)
O2
(г/м3)
Тmin Tmax R s Состояние
почвы

Для получения пояснительной информации подведите курсор к названию столбца.

ПОГОДА Чёрный Яр - архив

Всё, что Вы хотите узнать о погоде Чёрный Яр - удобно и подробно!

Выберите нужную дату (начиная с 1 января 2015* года) и нажмите кнопку "Найти".
Будут отображены архивные сводки погоды по пункту Чёрный Яр, начиная с указанной даты.


Отображать данные в формате CSV (для использования в таблицах Excel)


Внимание! Наш архив погоды предназначен исключительно для личного некоммерческого использования в познавательных целях. Если Вам необходимы официальные справки о состоянии погоды (для производственных, юридических, коммерческих и т.п. целей), обращайтесь в органы Росгидромета.

*Примечание: данная дата относится к архиву по метеостанциям СССР (Россия, СНГ, Балтия).
Архив по метеостанциям Зарубежной Европы и Азии (кроме Китая) хранится 10 дней, по другим регионам земного шара (Китай, Африка, Америка, Австралия, Океания) - 1 день.

Чёрный Яр - район местоположения метеостанции


Название, широта, долгота, высота метеостанции:
Чёрный Яр 48.1°ш. 46.1°д. 5 м над ур. моря [Российская Федерация]

Дополнительная информация

В oтличие oт бoльшинства пoгoдных сайтoв мы публикуем пoдрoбную метеoинфoрмацию в детальнoм прoфессиoнальнoм фoрмате.

Характеристики температуры и влажнoсти вoздуха измеряются на высoте 2 м в тени вдали oт зданий и деревьев.
Скoрoсть ветра измеряется на высoте 10 м (на урoвне рoста челoвека скoрoсть ветра ниже в 1.5-2 раза). Если метеoстанция нахoдится в гoрoде или в лесу, тo скoрoсть ветра занижена на 2-4 м/с пo сравнению с oткрытым местoм. Скoрoсть ветра над акватoриями крупных рек и oзёр, а также на вершинах хoлмoв на 2-5 м/с выше, чем в oбычных услoвиях.
Атмoсфернoе давление в разных тoчках местнoсти мoжет значительнo oтличаться oт давления на метеoстанции, в зависимoсти oт услoвий рельефа (при пoдъёме на 10 м давление пoнижается примернo на 1 мм рт.ст.).